Tracking 20628 objects as of 5-Apr-2020
HD Live streaming from Space Station
objects crossing your sky now

PEGASUS DEB

Track PEGASUS DEB now!
10-day predictions


NORAD ID: 39922
Int'l Code: 1994-029AFV
Perigee: 565.8 km
Apogee: 808.2 km
Inclination: 81.6 °
Period: 98.4 minutes
Semi major axis: 7058 km
RCS: 0.0142 m2 (small)
Launch date: May 19, 1994
Source: United States (US)
Launch site: AIR FORCE WESTERN TEST RANGE (AFWTR)

Note: This is SATELLITE DEBRIS
aabbcc
Your satellite tracking list
Your tracking list is empty




NASA's NSSDC Master Catalog

Two Line Element Set (TLE):
1 39922U 94029AFV 20095.91440538  .00000377  00000-0  55014-4 0  9995
2 39922  81.5992 159.2898 0171684 305.5485  52.9811 14.64131147904528
Source of the keplerian elements: AFSPC